Location: ?????
(30.2541°N, 31.0910°E)
Time: 02:58:56
(UTC+00:00)

Cosmos 1140 Rocket - Pass Details

Date: 27 September 2022
Orbit: 743 x 767 km, 74.1° (Epoch: 30 November)

Event Time Altitude Azimuth Distance (km) Brightness Sun altitude
Rises 03:00:57 0° 327° (NNW) 3,211 6.4 -10.7°
Reaches altitude 10° 03:03:43 10° 313° (NW) 2,287 5.6 -10.1°
Maximum altitude 03:07:47 24° 262° (W) 1,551 4.5 -9.2°
Drops below altitude 10° 03:11:51 10° 210° (SSW) 2,288 5.7 -8.3°
Sets 03:14:37 0° 196° (SSW) 3,213 6.5 -7.7°
